TimeEDT,TemperatureF,Dew PointF,Humidity,Sea Level PressureIn,VisibilityMPH,Wind Direction,Wind SpeedMPH,Gust SpeedMPH,PrecipitationIn,Events,Conditions,WindDirDegrees,DateUTC
12:00 AM,50.0,50.0,100,29.56,5.0,SW,6.9,-,N/A,Rain,Light Rain,220,2012-10-01 04:00:00
12:43 AM,50.0,50.0,100,29.55,6.0,South,6.9,-,N/A,Rain,Light Rain,190,2012-10-01 04:43:00
1:00 AM,50.0,50.0,100,29.55,8.0,SSW,8.1,-,N/A,Rain,Light Rain,200,2012-10-01 05:00:00
1:20 AM,50.0,48.2,94,29.55,9.0,South,6.9,-,N/A,Rain,Rain,190,2012-10-01 05:20:00
1:28 AM,50.0,48.2,94,29.55,9.0,South,9.2,-,N/A,Rain,Rain,190,2012-10-01 05:28:00
1:29 AM,50.0,48.2,94,29.55,9.0,South,9.2,-,N/A,Rain,Rain,190,2012-10-01 05:29:00
1:31 AM,50.0,48.2,94,29.55,9.0,SSW,10.4,-,N/A,Rain,Rain,200,2012-10-01 05:31:00
1:40 AM,50.0,48.2,94,29.55,9.0,SSW,8.1,-,N/A,Rain,Rain,200,2012-10-01 05:40:00
1:43 AM,50.0,48.2,94,29.54,9.0,SSW,6.9,-,N/A,Rain,Light Rain,200,2012-10-01 05:43:00
1:44 AM,50.0,48.2,94,29.54,9.0,SSW,9.2,-,N/A,Rain,Light Rain,200,2012-10-01 05:44:00
2:00 AM,50,49,95,29.54,9,South,6.9,,,Rain,Rain,190,2012-10-01 06:00:00
2:00 AM,50.0,48.2,94,29.54,9.0,South,8.1,-,N/A,Rain,Rain,190,2012-10-01 06:00:00
2:20 AM,50.0,48.2,94,29.53,9.0,South,8.1,-,N/A,Rain,Rain,180,2012-10-01 06:20:00
2:25 AM,50.0,48.2,94,29.53,9.0,South,8.1,-,N/A,Rain,Light Rain,190,2012-10-01 06:25:00
2:27 AM,50.0,48.2,94,29.53,9.0,South,8.1,-,N/A,Rain,Light Rain,190,2012-10-01 06:27:00
2:32 AM,50.0,48.2,94,29.53,9.0,South,8.1,-,N/A,Rain,Light Rain,190,2012-10-01 06:32:00
2:34 AM,50.0,48.2,94,29.53,9.0,South,10.4,-,N/A,Rain,Light Rain,190,2012-10-01 06:34:00
2:35 AM,50.0,48.2,94,29.53,9.0,South,8.1,-,N/A,Rain,Light Rain,190,2012-10-01 06:35:00
2:36 AM,50.0,48.2,94,29.53,9.0,South,6.9,-,N/A,Rain,Light Rain,190,2012-10-01 06:36:00
2:37 AM,50.0,48.2,94,29.53,9.0,South,6.9,-,N/A,Rain,Light Rain,190,2012-10-01 06:37:00
3:00 AM,50.0,48.2,94,29.52,6.0,South,10.4,-,N/A,Rain,Light Rain,190,2012-10-01 07:00:00
3:01 AM,50.0,48.2,94,29.52,6.0,South,10.4,-,N/A,Rain,Light Rain,190,2012-10-01 07:01:00
3:33 AM,50.0,48.2,94,29.52,7.0,South,9.2,-,N/A,Rain,Light Rain,180,2012-10-01 07:33:00
3:54 AM,50.0,48.2,94,29.52,9.0,South,6.9,-,N/A,Rain,Light Rain,180,2012-10-01 07:54:00
4:00 AM,50.0,48.2,94,29.52,9.0,South,9.2,-,N/A,Rain,Light Rain,180,2012-10-01 08:00:00
4:05 AM,50.0,48.2,94,29.52,9.0,South,9.2,-,N/A,Rain,Light Rain,190,2012-10-01 08:05:00
5:00 AM,50,48,92,29.51,10,South,10.4,,,Rain,Light Rain,190,2012-10-01 09:00:00
5:00 AM,50.0,48.2,94,29.51,9.0,South,11.5,-,N/A,Rain,Light Rain,190,2012-10-01 09:00:00
6:00 AM,50.0,48.2,94,29.52,9.0,South,8.1,-,N/A,Rain,Rain,190,2012-10-01 10:00:00
6:05 AM,50.0,48.2,94,29.52,9.0,South,6.9,-,N/A,Rain,Rain,190,2012-10-01 10:05:00
6:09 AM,50.0,48.2,94,29.52,9.0,SSW,8.1,-,N/A,Rain,Rain,200,2012-10-01 10:09:00
6:15 AM,50.0,48.2,94,29.52,9.0,South,6.9,-,N/A,Rain,Light Rain,190,2012-10-01 10:15:00
7:00 AM,50.0,48.2,94,29.52,9.0,South,6.9,-,N/A,Rain,Light Rain,180,2012-10-01 11:00:00
7:16 AM,50.0,48.2,94,29.52,9.0,South,6.9,-,N/A,Rain,Light Rain,180,2012-10-01 11:16:00
7:53 AM,50.0,48.2,94,29.53,5.0,SSW,6.9,-,N/A,Rain,Light Rain,200,2012-10-01 11:53:00
8:00 AM,49,48,94,,5,South,5.8,,,Rain,Light Rain,190,2012-10-01 12:00:00
8:00 AM,50.0,48.2,94,29.53,5.0,South,5.8,-,N/A,Rain,Light Rain,190,2012-10-01 12:00:00
8:04 AM,50.0,48.2,94,29.53,6.0,SSW,5.8,-,N/A,Rain,Light Rain,200,2012-10-01 12:04:00
8:11 AM,50.0,48.2,94,29.53,6.0,SW,4.6,-,N/A,Rain,Light Rain,220,2012-10-01 12:11:00
8:13 AM,50.0,48.2,94,29.53,7.0,SSW,4.6,-,N/A,Rain,Rain,200,2012-10-01 12:13:00
8:29 AM,50.0,48.2,94,29.54,5.0,SSW,5.8,-,N/A,Rain,Light Rain,200,2012-10-01 12:29:00
8:59 AM,50.0,48.2,94,29.54,4.0,SSW,5.8,-,N/A,Rain,Light Rain,210,2012-10-01 12:59:00
9:00 AM,50.0,48.2,94,29.54,4.0,SSW,5.8,-,N/A,Rain,Light Rain,210,2012-10-01 13:00:00
9:15 AM,50.0,48.2,94,29.55,2.5,SSW,9.2,-,N/A,Rain,Light Rain,210,2012-10-01 13:15:00
10:00 AM,50.0,50.0,100,29.56,2.5,SW,4.6,-,N/A,Rain,Light Rain,220,2012-10-01 14:00:00
10:23 AM,51.8,50.0,94,29.57,1.8,SW,6.9,-,N/A,Rain,Light Rain,230,2012-10-01 14:23:00
10:32 AM,51.8,50.0,94,29.57,2.0,SW,8.1,-,N/A,Rain,Light Rain,230,2012-10-01 14:32:00
10:38 AM,51.8,50.0,94,29.57,2.5,SW,6.9,-,N/A,,Overcast,230,2012-10-01 14:38:00
10:39 AM,51.8,51.8,100,29.57,3.0,SW,6.9,-,N/A,,Overcast,230,2012-10-01 14:39:00
10:46 AM,51.8,51.8,100,29.57,2.2,WSW,8.1,-,N/A,,Overcast,240,2012-10-01 14:46:00
10:49 AM,51.8,51.8,100,29.57,1.8,WSW,5.8,-,N/A,Rain,Light Rain,240,2012-10-01 14:49:00
11:00 AM,52,51,97,29.58,1,SW,8.1,,,Rain,Light Rain,230,2012-10-01 15:00:00
11:00 AM,51.8,51.8,100,29.58,1.5,WSW,9.2,-,N/A,Rain,Light Rain,240,2012-10-01 15:00:00
11:04 AM,51.8,51.8,100,29.58,2.0,West,5.8,-,N/A,Rain,Light Rain,260,2012-10-01 15:04:00
11:10 AM,51.8,51.8,100,29.58,3.0,WSW,9.2,-,N/A,Rain,Light Rain,250,2012-10-01 15:10:00
11:15 AM,51.8,51.8,100,29.58,6.0,West,11.5,-,N/A,Rain,Light Rain,260,2012-10-01 15:15:00
11:22 AM,51.8,51.8,100,29.59,4.0,WSW,11.5,-,N/A,,Overcast,250,2012-10-01 15:22:00
11:25 AM,51.8,51.8,100,29.59,3.0,West,10.4,-,N/A,Rain,Light Rain,260,2012-10-01 15:25:00
11:29 AM,51.8,51.8,100,29.59,3.0,West,10.4,-,N/A,Rain,Light Rain,260,2012-10-01 15:29:00
11:33 AM,53.6,51.8,94,29.59,6.0,WSW,11.5,-,N/A,Rain,Light Rain,250,2012-10-01 15:33:00
11:35 AM,53.6,51.8,94,29.60,7.0,WSW,9.2,-,N/A,,Overcast,250,2012-10-01 15:35:00
11:38 AM,53.6,51.8,94,29.60,9.0,West,11.5,17.3,N/A,,Overcast,260,2012-10-01 15:38:00
11:46 AM,53.6,51.8,94,29.60,9.0,West,10.4,17.3,N/A,,Overcast,260,2012-10-01 15:46:00
12:00 PM,53.6,51.8,94,29.61,9.0,WSW,9.2,-,N/A,,Overcast,250,2012-10-01 16:00:00
12:04 PM,53.6,51.8,94,29.61,9.0,WSW,10.4,-,N/A,,Overcast,250,2012-10-01 16:04:00
12:07 PM,53.6,51.8,94,29.61,7.0,WSW,13.8,-,N/A,,Overcast,250,2012-10-01 16:07:00
12:19 PM,53.6,51.8,94,29.62,4.0,West,10.4,-,N/A,,Overcast,270,2012-10-01 16:19:00
12:20 PM,53.6,51.8,94,29.62,3.0,West,9.2,-,N/A,Rain,Light Rain,270,2012-10-01 16:20:00
12:22 PM,53.6,51.8,94,29.62,2.2,West,8.1,-,N/A,Rain,Light Rain,280,2012-10-01 16:22:00
12:29 PM,53.6,51.8,94,29.62,2.2,West,9.2,-,N/A,Rain,Light Rain,280,2012-10-01 16:29:00
12:32 PM,53.6,51.8,94,29.63,3.0,West,9.2,-,N/A,Rain,Light Rain,280,2012-10-01 16:32:00
12:36 PM,53.6,51.8,94,29.63,2.2,West,13.8,20.7,N/A,Rain,Light Rain,270,2012-10-01 16:36:00
12:38 PM,53.6,51.8,94,29.63,1.8,West,12.7,20.7,N/A,Rain,Light Rain,270,2012-10-01 16:38:00
12:55 PM,53.6,51.8,94,29.64,2.2,WNW,10.4,20.7,N/A,Rain,Light Rain,290,2012-10-01 16:55:00
12:57 PM,53.6,51.8,94,29.64,3.0,West,11.5,20.7,N/A,Rain,Light Rain,280,2012-10-01 16:57:00
1:00 PM,53.6,53.6,100,29.64,6.0,West,12.7,-,N/A,Rain,Light Rain,280,2012-10-01 17:00:00
1:03 PM,53.6,51.8,94,29.64,9.0,West,13.8,-,N/A,,Overcast,270,2012-10-01 17:03:00
1:06 PM,53.6,51.8,94,29.64,9.0,West,12.7,-,N/A,,Overcast,280,2012-10-01 17:06:00
1:19 PM,53.6,51.8,94,29.65,5.0,West,15.0,-,N/A,,Overcast,280,2012-10-01 17:19:00
1:23 PM,53.6,51.8,94,29.66,2.5,WNW,12.7,20.7,N/A,,Overcast,290,2012-10-01 17:23:00
1:24 PM,53.6,51.8,94,29.66,2.5,WNW,11.5,20.7,N/A,Rain,Light Rain,300,2012-10-01 17:24:00
1:25 PM,53.6,51.8,94,29.66,2.5,WNW,11.5,20.7,N/A,Rain,Light Rain,300,2012-10-01 17:25:00
1:26 PM,53.6,51.8,94,29.66,2.5,WNW,12.7,20.7,N/A,Rain,Light Rain,290,2012-10-01 17:26:00
1:27 PM,53.6,51.8,94,29.66,2.5,WNW,13.8,20.7,N/A,Rain,Light Rain,290,2012-10-01 17:27:00
1:29 PM,53.6,51.8,94,29.66,3.0,WNW,11.5,20.7,N/A,Rain,Light Rain,300,2012-10-01 17:29:00
1:31 PM,53.6,51.8,94,29.66,4.0,WNW,9.2,17.3,N/A,Rain,Light Rain,300,2012-10-01 17:31:00
1:32 PM,53.6,51.8,94,29.66,6.0,WNW,9.2,-,N/A,Rain,Light Rain,300,2012-10-01 17:32:00
1:38 PM,53.6,53.6,100,29.66,9.0,WNW,10.4,-,N/A,,Overcast,290,2012-10-01 17:38:00
1:56 PM,53.6,51.8,94,29.68,9.0,WNW,10.4,-,N/A,,Overcast,290,2012-10-01 17:56:00
1:57 PM,53.6,51.8,94,29.68,9.0,WNW,9.2,-,N/A,,Overcast,290,2012-10-01 17:57:00
2:00 PM,54,52,90,29.68,10,WNW,9.2,,,,Clear,290,2012-10-01 18:00:00
2:00 PM,53.6,51.8,94,29.68,9.0,WNW,6.9,-,N/A,,Overcast,300,2012-10-01 18:00:00
3:00 PM,55.4,51.8,88,29.70,9.0,West,8.1,-,N/A,,Overcast,280,2012-10-01 19:00:00
3:58 PM,55.4,51.8,88,29.72,9.0,West,6.9,-,N/A,Rain,Light Rain,270,2012-10-01 19:58:00
4:00 PM,55.4,51.8,88,29.72,9.0,West,5.8,-,N/A,Rain,Light Rain,280,2012-10-01 20:00:00
5:00 PM,54,53,94,29.75,6,WSW,9.2,,,Rain,Light Rain,250,2012-10-01 21:00:00
5:00 PM,53.6,51.8,94,29.74,6.0,WSW,9.2,-,N/A,Rain,Light Rain,250,2012-10-01 21:00:00
5:02 PM,53.6,51.8,94,29.74,5.0,WSW,8.1,-,N/A,Rain,Light Rain,250,2012-10-01 21:02:00
5:08 PM,53.6,51.8,94,29.75,6.0,WSW,10.4,-,N/A,Rain,Light Rain,250,2012-10-01 21:08:00
5:12 PM,55.4,53.6,94,29.75,9.0,WSW,9.2,-,N/A,,Overcast,250,2012-10-01 21:12:00
6:00 PM,55.4,51.8,88,29.77,9.0,WSW,6.9,-,N/A,,Overcast,250,2012-10-01 22:00:00
6:41 PM,53.6,51.8,94,29.80,7.0,West,8.1,-,N/A,,Overcast,260,2012-10-01 22:41:00
6:43 PM,53.6,51.8,94,29.80,7.0,West,8.1,-,N/A,,Overcast,260,2012-10-01 22:43:00
6:44 PM,53.6,51.8,94,29.80,6.0,West,8.1,-,N/A,,Overcast,260,2012-10-01 22:44:00
6:45 PM,53.6,51.8,94,29.80,6.0,WSW,8.1,-,N/A,,Overcast,250,2012-10-01 22:45:00
6:46 PM,53.6,51.8,94,29.80,6.0,WSW,8.1,-,N/A,,Overcast,250,2012-10-01 22:46:00
6:48 PM,53.6,51.8,94,29.80,6.0,WSW,8.1,-,N/A,,Overcast,250,2012-10-01 22:48:00
6:51 PM,53.6,51.8,94,29.80,7.0,WSW,8.1,-,N/A,,Overcast,240,2012-10-01 22:51:00
6:53 PM,53.6,51.8,94,29.80,8.0,WSW,6.9,-,N/A,,Overcast,250,2012-10-01 22:53:00
6:55 PM,53.6,51.8,94,29.81,9.0,WSW,6.9,-,N/A,,Overcast,240,2012-10-01 22:55:00
7:00 PM,53.6,51.8,94,29.81,9.0,WSW,6.9,-,N/A,,Overcast,240,2012-10-01 23:00:00
8:00 PM,54,52,90,29.83,10,WSW,9.2,,,,Clear,250,2012-10-02 00:00:00
8:00 PM,53.6,51.8,94,29.83,9.0,WSW,8.1,-,N/A,,Overcast,250,2012-10-02 00:00:00
9:00 PM,53.6,51.8,94,29.84,9.0,WSW,8.1,-,N/A,,Overcast,240,2012-10-02 01:00:00
10:00 PM,53.6,51.8,94,29.86,9.0,WSW,9.2,-,N/A,,Overcast,240,2012-10-02 02:00:00
10:48 PM,53.6,51.8,94,29.86,9.0,WSW,10.4,-,N/A,,Overcast,250,2012-10-02 02:48:00
11:00 PM,53,51,92,29.87,10,WSW,10.4,,,,Clear,250,2012-10-02 03:00:00
11:00 PM,53.6,51.8,94,29.87,9.0,WSW,10.4,-,N/A,,Overcast,250,2012-10-02 03:00:00